sat.trackr.live / text

‹ back to catalog

STARLINK-5281

NORAD 54190 · 2022-141AK

PAYLOAD ACTIVE UNKNOWN

§ Identity

Operator
Country
US
Launch date
2022-10-28
Launch site
AFWTR
Launch vehicle
Mass (kg)
RCS (m²)

Purposes: comms

External: N2YO · Heavens-Above · Gunter

§ Orbital elements

Epoch: 2026-09-20T07:28:40.498176Z

Period
93.85 min
Inclination
53.1599°
Eccentricity
0.0001194
Mean motion
15.34388810 rev/d
Perigee alt
461.9 km
Apogee alt
463.6 km
Semi-major
6,840.9 km
B*
3.8075e-5
RAAN
190.3392°
Arg perigee
92.8499°
Mean anomaly
267.2640°
Rev number
21,551

§ Raw data

STARLINK-52811 54190U 22141AK  26263.31157984  .00000910  00000+0  38075-4 0  99922 54190  53.1599 190.3392 0001194  92.8499 267.2640 15.34388810215518

JSON: /api/v1/satellites/54190 · /tle

For live sub-satellite position, see the globe view (requires WebGL).

§ Visibility from observer

Set your observer location to see the next 7 days of passes ≥ 10°. The values pass through the URL so the page stays shareable.

No JS? Fill the form by hand. The geolocation button needs JavaScript.